Spokane Fairchild, WA
on Wednesday, December 12, 2012

Wednesday
Previous Day Next Day
Daily Summary
 ActualAverage (KGEG)Record (KGEG)
Temperature
Mean Temperature °F 27°F  
Max Temperature 32°F 32°F 59°F (1921)
Min Temperature 29°F 22°F -15°F (1922)
Degree Days
Heating Degree Days 34 38  
Month to date heating degree days 439  
Since 1 July heating degree days 2106  
Cooling Degree Days 0 0  
Month to date cooling degree days 0  
Year to date cooling degree days 450  
Moisture
Dew Point 32°F   
Average Humidity 100    
Maximum Humidity 100    
Minimum Humidity 100    
Precipitation
Precipitation 0.15 in 0.08 in 0.72 in (1888)
Month to date precipitation 0.97  
Year to date precipitation 15.23  
Snow
Snow 0.00 in 0.40 in 5.60 in (1971)
Month to date snowfall 5.1  
Since 1 July snowfall 12.6  
Snow Depth 2.00 in   
Wind
Wind Speed 3 mph   
Max Wind Speed 12 mph   
Max Gust Speed mph   
Visibility 4 miles   
Events Fog , Rain , Snow   

Key: T is trace of precipitation, MM is missing value
Source: NWS Daily Summary
Time(PST)TemperatureDew PointHumidity Pressure Visibility Wind DirectionWind SpeedGust SpeedPrecipitationEvents Conditions
12:03 AM 32.0°F 32.0°F 100% 29.54 in 1.5 miles ENE 1.2 mph - N/A Snow Light Snow
12:08 AM 32.0°F 32.0°F 100% 29.54 in 1.2 miles ENE 1.2 mph - N/A Snow Light Snow
12:13 AM 32.0°F 32.0°F 100% 29.54 in 1.2 miles East 1.2 mph - N/A Snow Light Snow
12:18 AM 32.0°F 32.0°F 100% 29.54 in 1.2 miles ESE 1.2 mph - N/A Snow Light Snow
12:28 AM 32.0°F 32.0°F 100% 29.54 in 1.2 miles ESE 2.3 mph - N/A Snow Light Snow
12:43 AM 32.0°F 32.0°F 100% 29.54 in 1.2 miles SE 2.3 mph - N/A Snow Light Snow
12:48 AM 32.0°F 32.0°F 100% 29.54 in 1.2 miles SE 2.3 mph - N/A Snow Light Snow
12:53 AM 32.0°F 32.0°F 100% 29.54 in 1.0 miles SE 2.3 mph - N/A Snow Light Snow
12:58 AM 32.0°F 32.0°F 100% 29.60 in 1.0 miles SE 2.3 mph - 0.05 in Snow Light Snow
1:13 AM 32.0°F 32.0°F 100% 29.54 in 1.0 miles ESE 2.3 mph - N/A Snow Light Snow
1:18 AM 32.0°F 32.0°F 100% 29.54 in 1.0 miles ESE 2.3 mph - N/A Snow Light Snow
1:33 AM 32.0°F 32.0°F 100% 29.54 in 1.2 miles SE 3.5 mph - N/A Snow Light Snow
1:43 AM 32.0°F 32.0°F 100% 29.54 in 1.5 miles SSE 2.3 mph - N/A Snow Light Snow
1:48 AM 32.0°F 32.0°F 100% 29.54 in 2.0 miles SSE 2.3 mph - N/A Snow Light Snow
1:53 AM 32.0°F 32.0°F 100% 29.54 in 3.0 miles SSE 2.3 mph - N/A Snow Light Snow
1:58 AM 32.2°F 32.2°F 100% 29.60 in 4.0 miles SSE 2.3 mph - 0.02 in Snow Light Snow
2:08 AM 32.0°F 32.0°F 100% 29.54 in 4.0 miles South 2.3 mph - N/A Snow Light Snow
2:13 AM 32.0°F 32.0°F 100% 29.54 in 3.0 miles South 2.3 mph - N/A Snow Light Snow
2:23 AM 32.0°F 32.0°F 100% 29.54 in 3.0 miles South 2.3 mph - N/A Snow Light Snow
2:28 AM 32.0°F 32.0°F 100% 29.54 in 3.0 miles SSE 2.3 mph - N/A Snow Light Snow
2:33 AM 32.0°F 32.0°F 100% 29.54 in 3.0 miles SE 2.3 mph - N/A Snow Light Snow
2:48 AM 32.0°F 32.0°F 100% 29.55 in 3.0 miles South 1.2 mph - N/A Rain Light Rain
2:58 AM 32.2°F 32.2°F 100% 29.60 in 5.0 miles South 2.3 mph - 0.01 in Snow Light Snow
2:59 AM 32.0°F 32.0°F 100% 29.54 in 5.0 miles South 2.3 mph - N/A Snow Light Snow
3:04 AM 32.0°F 32.0°F 100% 29.54 in 5.0 miles South 2.3 mph - N/A Snow Light Snow
3:19 AM 32.0°F 32.0°F 100% 29.54 in 3.0 miles SSE 2.3 mph - N/A Snow Light Snow
3:24 AM 32.0°F 32.0°F 100% 29.55 in 2.5 miles SSE 2.3 mph - N/A Snow Light Snow
3:34 AM 32.0°F 32.0°F 100% 29.55 in 3.0 miles South 2.3 mph - N/A Snow Light Snow
3:44 AM 32.0°F 32.0°F 100% 29.55 in 3.0 miles South 2.3 mph - N/A Snow Light Snow
3:58 AM 32.2°F 32.2°F 100% 29.61 in 4.0 miles SSE 3.5 mph - 0.01 in Snow Light Snow
4:08 AM 32.0°F 32.0°F 100% 29.55 in 5.0 miles SSE 2.3 mph - N/A Snow Light Snow
4:13 AM 32.0°F 32.0°F 100% 29.55 in 6.0 miles SSE 2.3 mph - N/A Snow Light Snow
4:45 AM 32.0°F 32.0°F 100% 29.56 in 9.0 miles South 2.3 mph - N/A   Overcast
4:51 AM 32.0°F 32.0°F 100% 29.56 in 7.0 miles South 2.3 mph - N/A Snow Light Snow
4:58 AM 32.2°F 32.2°F 100% 29.62 in 6.0 miles South 2.3 mph - 0.00 in Snow Light Snow
5:08 AM 32.0°F 32.0°F 100% 29.56 in 5.0 miles SSW 3.5 mph - N/A Rain Light Rain
5:16 AM 32.0°F 32.0°F 100% 29.56 in 2.5 miles SSW 2.3 mph - N/A   Overcast
5:21 AM 32.0°F 32.0°F 100% 29.56 in 1.5 miles SSW 2.3 mph - N/A   Overcast
5:31 AM 32.0°F 32.0°F 100% 29.57 in 2.0 miles SW 3.5 mph - N/A   Overcast
5:36 AM 32.0°F 32.0°F 100% 29.57 in 3.0 miles SW 2.3 mph - N/A   Overcast
5:51 AM 32.0°F 32.0°F 100% 29.57 in 10.0 miles SW 2.3 mph - N/A   Overcast
5:58 AM 32.4°F 32.4°F 100% 29.64 in 10.0 miles WSW 2.3 mph - 0.00 in   Overcast
6:33 AM 32.0°F 32.0°F 100% 29.59 in 9.0 miles WSW 2.3 mph - N/A   Overcast
6:43 AM 32.0°F 32.0°F 100% 29.60 in 2.5 miles West 3.5 mph - N/A   Overcast
6:46 AM 32.0°F 32.0°F 100% 29.60 in 1.5 miles West 3.5 mph - N/A   Overcast
6:51 AM 32.0°F 32.0°F 100% 29.60 in 1.0 miles WSW 2.3 mph - N/A   Mist
6:55 AM 32.0°F 32.0°F 100% 29.60 in 1.0 miles West 3.5 mph - N/A   Mist
6:58 AM 32.0°F 32.0°F 100% 29.66 in 1.0 miles West 3.5 mph - 0.00 in   Mist
6:59 AM 32.0°F 32.0°F 100% 29.60 in 1.0 miles West 3.5 mph - N/A   Mist
7:04 AM 32.0°F 32.0°F 100% 29.60 in 1.0 miles West 3.5 mph - N/A   Mist
7:19 AM 32.0°F 32.0°F 100% 29.61 in 0.8 miles WSW 4.6 mph - N/A   Mist
7:24 AM 32.0°F 32.0°F 100% 29.61 in 0.5 miles WSW 3.5 mph - N/A Fog Fog
7:34 AM 32.0°F 32.0°F 100% 29.62 in 0.2 miles WSW 3.5 mph - N/A Fog Fog
7:45 AM 32.0°F 32.0°F 100% 29.62 in 0.2 miles WSW 3.5 mph - N/A Fog Fog
7:50 AM 32.0°F 32.0°F 100% 29.62 in 0.2 miles WSW 2.3 mph - N/A Fog Fog
7:58 AM 32.2°F 32.2°F 100% 29.70 in 0.2 miles WSW 2.3 mph - 0.00 in Fog Fog
8:21 AM 32.0°F 32.0°F 100% 29.64 in 0.2 miles WSW 2.3 mph - N/A Fog Light Drizzle
8:36 AM 32.0°F 32.0°F 100% 29.65 in 0.2 miles WSW 2.3 mph - N/A Fog , Rain Light Rain
8:42 AM 32.0°F 32.0°F 100% 29.65 in 0.2 miles WSW 2.3 mph - N/A Fog Fog
8:52 AM 32.0°F 32.0°F 100% 29.65 in 0.5 miles WSW 3.5 mph - N/A Fog Fog
8:58 AM 32.0°F 32.0°F 100% 29.73 in 0.5 miles WSW 3.5 mph - 0.00 in Fog Fog
9:23 AM 32.0°F 32.0°F 100% 29.67 in 0.8 miles SW 2.3 mph - N/A   Overcast
9:33 AM 32.0°F 32.0°F 100% 29.67 in 0.8 miles SSW 2.3 mph - N/A   Overcast
9:38 AM 32.0°F 32.0°F 100% 29.67 in 0.5 miles South 2.3 mph - N/A Fog Fog
9:43 AM 32.0°F 32.0°F 100% 29.68 in 0.5 miles SSW 2.3 mph - N/A Fog Fog
9:58 AM 32.0°F 32.0°F 100% 29.75 in 0.5 miles SW 2.3 mph - N/A Fog Fog
10:03 AM 32.0°F 32.0°F 100% 29.69 in 0.8 miles WSW 3.5 mph - N/A   Overcast
10:08 AM 32.0°F 32.0°F 100% 29.69 in 1.2 miles WSW 3.5 mph - N/A   Overcast
10:13 AM 32.0°F 32.0°F 100% 29.69 in 3.0 miles WSW 3.5 mph - N/A   Overcast
10:26 AM 32.0°F 32.0°F 100% 29.69 in 2.5 miles SSW 3.5 mph - N/A   Overcast
10:31 AM 32.0°F 32.0°F 100% 29.69 in 1.2 miles SSW 2.3 mph - N/A   Overcast
10:36 AM 32.0°F 32.0°F 100% 29.69 in 0.8 miles SSW 3.5 mph - N/A   Mist
10:41 AM 32.0°F 32.0°F 100% 29.69 in 0.8 miles SSW 5.8 mph - N/A   Mist
10:46 AM 32.0°F 32.0°F 100% 29.69 in 1.5 miles SW 8.1 mph - N/A   Overcast
10:51 AM 32.0°F 32.0°F 100% 29.69 in 2.0 miles SW 8.1 mph - N/A   Overcast
10:56 AM 32.0°F 32.0°F 100% 29.70 in 1.8 miles SW 8.1 mph - N/A   Light Drizzle
10:58 AM 32.2°F 32.2°F 100% 29.77 in 1.8 miles SW 8.1 mph - 0.00 in   Light Drizzle
11:08 AM 32.0°F 32.0°F 100% 29.70 in 1.8 miles SW 6.9 mph - N/A   Overcast
11:13 AM 32.0°F 32.0°F 100% 29.70 in 2.0 miles SW 6.9 mph - N/A   Overcast
11:18 AM 32.0°F 32.0°F 100% 29.70 in 2.5 miles SW 5.8 mph - N/A   Light Drizzle
11:27 AM 32.0°F 32.0°F 100% 29.70 in 3.0 miles SW 8.1 mph - N/A   Overcast
11:42 AM 32.0°F 32.0°F 100% 29.71 in 7.0 miles SW 6.9 mph - N/A   Overcast
11:52 AM 32.0°F 32.0°F 100% 29.71 in 10.0 miles SW 11.5 mph - N/A   Overcast
11:58 AM 31.8°F 31.8°F 100% 29.78 in 10.0 miles SW 11.5 mph - 0.00 in   Overcast
12:01 PM 32.0°F 32.0°F 100% 29.71 in 10.0 miles SW 11.5 mph - N/A   Light Drizzle
12:31 PM 32.0°F 32.0°F 100% 29.72 in 5.0 miles SSW 8.1 mph - N/A Snow Light Snow
12:41 PM 32.0°F 32.0°F 100% 29.72 in 3.0 miles SSW 8.1 mph - N/A Snow Light Snow
12:46 PM 32.0°F 32.0°F 100% 29.72 in 2.0 miles SSW 8.1 mph - N/A Snow Light Snow
12:51 PM 32.0°F 32.0°F 100% 29.72 in 2.0 miles SSW 5.8 mph - N/A Snow Light Snow
12:56 PM 32.0°F 32.0°F 100% 29.73 in 1.8 miles SW 6.9 mph - N/A Snow Light Snow
12:58 PM 32.0°F 32.0°F 100% 29.80 in 1.8 miles SW 6.9 mph - 0.00 in Snow Light Snow
1:08 PM 32.0°F 32.0°F 100% 29.73 in 2.0 miles SSW 5.8 mph - N/A Snow Light Snow
1:23 PM 32.0°F 32.0°F 100% 29.74 in 1.8 miles SW 4.6 mph - N/A Snow Light Snow
1:43 PM 32.0°F 32.0°F 100% 29.74 in 1.5 miles SW 8.1 mph - N/A Snow Light Snow
1:53 PM 32.0°F 32.0°F 100% 29.75 in 1.0 miles SW 5.8 mph - N/A Snow Light Snow
1:58 PM 32.0°F 32.0°F 100% 29.82 in 0.8 miles SW 5.8 mph - 0.01 in Snow Light Snow
2:03 PM 32.0°F 32.0°F 100% 29.75 in 1.0 miles SW 5.8 mph - N/A Snow Light Snow
2:08 PM 32.0°F 32.0°F 100% 29.75 in 1.0 miles SW 4.6 mph - N/A Snow Light Snow
2:18 PM 32.0°F 32.0°F 100% 29.76 in 1.2 miles SW 4.6 mph - N/A Snow Light Snow
2:19 PM 32.0°F 32.0°F 100% 29.76 in 1.2 miles SW 4.6 mph - N/A Snow Light Snow
2:24 PM 32.0°F 32.0°F 100% 29.76 in 1.5 miles SW 5.8 mph - N/A Snow Light Snow
2:29 PM 32.0°F 32.0°F 100% 29.76 in 2.0 miles SW 5.8 mph - N/A Snow Light Snow
2:34 PM 32.0°F 32.0°F 100% 29.76 in 2.0 miles SW 4.6 mph - N/A Snow Light Snow
2:49 PM 32.0°F 32.0°F 100% 29.77 in 3.0 miles SW 5.8 mph - N/A Snow Light Snow
2:58 PM 31.5°F 31.5°F 100% 29.84 in 3.0 miles SSW 5.8 mph - 0.04 in Snow Light Snow
3:08 PM 32.0°F 32.0°F 100% 29.77 in 2.5 miles SSW 5.8 mph - N/A Snow Light Snow
3:18 PM 32.0°F 32.0°F 100% 29.78 in 3.0 miles South 4.6 mph - N/A Snow Light Snow
3:48 PM 32.0°F 32.0°F 100% 29.79 in 4.0 miles SSW 4.6 mph - N/A Snow Light Snow
3:58 PM 31.5°F 31.5°F 100% 29.86 in 3.0 miles SSW 4.6 mph - 0.01 in Snow Light Snow
4:03 PM 32.0°F 32.0°F 100% 29.79 in 2.5 miles SW 4.6 mph - N/A Snow Light Snow
4:08 PM 32.0°F 32.0°F 100% 29.79 in 3.0 miles SW 4.6 mph - N/A Snow Light Snow
4:18 PM 32.0°F 32.0°F 100% 29.80 in 2.5 miles SW 4.6 mph - N/A Snow Light Snow
4:23 PM 32.0°F 32.0°F 100% 29.80 in 2.0 miles SW 4.6 mph - N/A Snow Light Snow
4:33 PM 32.0°F 32.0°F 100% 29.80 in 4.0 miles SW 4.6 mph - N/A Snow Light Snow
4:38 PM 32.0°F 32.0°F 100% 29.80 in 5.0 miles SW 4.6 mph - N/A Snow Light Snow
4:43 PM 32.0°F 32.0°F 100% 29.81 in 7.0 miles SSW 4.6 mph - N/A Snow Light Snow
4:58 PM 30.9°F 30.9°F 100% 29.88 in 8.0 miles SW 5.8 mph - 0.00 in Snow Light Snow
5:08 PM 32.0°F 32.0°F 100% 29.82 in 10.0 miles SW 5.8 mph - N/A Snow Light Snow
5:23 PM 32.0°F 32.0°F 100% 29.82 in 10.0 miles SW 5.8 mph - N/A Snow Light Snow
5:28 PM 32.0°F 32.0°F 100% 29.82 in 10.0 miles SSW 5.8 mph - N/A Snow Light Snow
5:38 PM 32.0°F 32.0°F 100% 29.82 in 10.0 miles SSW 4.6 mph - N/A Snow Light Snow
5:48 PM 32.0°F 32.0°F 100% 29.83 in 4.0 miles SW 3.5 mph - N/A Snow Light Snow
5:53 PM 32.0°F 32.0°F 100% 29.83 in 4.0 miles SW 3.5 mph - N/A Snow Light Snow
5:58 PM 30.7°F 30.7°F 100% 29.90 in 5.0 miles SW 4.6 mph - 0.00 in Snow Light Snow
6:23 PM 32.0°F 32.0°F 100% 29.83 in 10.0 miles SW 6.9 mph - N/A Snow Light Snow
6:28 PM 32.0°F 32.0°F 100% 29.83 in 10.0 miles SW 5.8 mph - N/A Snow Light Snow
6:29 PM 32.0°F 32.0°F 100% 29.84 in 10.0 miles SW 5.8 mph - N/A   Overcast
6:34 PM 32.0°F 32.0°F 100% 29.84 in 10.0 miles WSW 5.8 mph - N/A   Overcast
6:54 PM 32.0°F 32.0°F 100% 29.84 in 10.0 miles SW 5.8 mph - N/A   Overcast
6:58 PM 30.6°F 30.6°F 100% 29.91 in 10.0 miles SW 5.8 mph - 0.00 in   Overcast
7:37 PM 32.0°F 32.0°F 100% 29.85 in 10.0 miles SSW 4.6 mph - N/A   Overcast
7:58 PM 30.7°F 30.7°F 100% 29.93 in 10.0 miles South 5.8 mph - 0.00 in Snow Light Snow
8:33 PM 32.0°F 32.0°F 100% 29.87 in 10.0 miles WSW 5.8 mph - N/A   Overcast
8:43 PM 32.0°F 32.0°F 100% 29.87 in 10.0 miles SW 5.8 mph - N/A   Overcast
8:53 PM 32.0°F 32.0°F 100% 29.88 in 10.0 miles WSW 5.8 mph - N/A   Overcast
8:57 PM 32.0°F 32.0°F 100% 29.88 in 10.0 miles WSW 5.8 mph - N/A   Overcast
8:58 PM 30.6°F 30.6°F 100% 29.95 in 10.0 miles WSW 6.9 mph - 0.00 in   Overcast
9:02 PM 32.0°F 32.0°F 100% 29.88 in 9.0 miles WSW 6.9 mph - N/A   Overcast
9:12 PM 32.0°F 32.0°F 100% 29.88 in 1.8 miles SW 6.9 mph - N/A   Overcast
9:17 PM 30.2°F 30.2°F 100% 29.88 in 2.0 miles SW 5.8 mph - N/A   Overcast
9:22 PM 30.2°F 30.2°F 100% 29.89 in 4.0 miles SW 6.9 mph - N/A   Overcast
9:48 PM 30.2°F 30.2°F 100% 29.90 in 10.0 miles SW 4.6 mph - N/A   Overcast
9:55 PM 30.2°F 30.2°F 100% 29.90 in 10.0 miles WSW 5.8 mph - N/A   Overcast
9:58 PM 30.2°F 30.2°F 100% 29.97 in 10.0 miles SW 5.8 mph - 0.00 in   Overcast
9:59 PM 30.2°F 30.2°F 100% 29.91 in 10.0 miles WSW 5.8 mph - N/A   Overcast
10:19 PM 30.2°F 30.2°F 100% 29.92 in 7.0 miles WSW 5.8 mph - N/A Snow Light Snow
10:34 PM 30.2°F 30.2°F 100% 29.92 in 4.0 miles West 4.6 mph - N/A Snow Light Snow
10:49 PM 30.2°F 30.2°F 100% 29.92 in 5.0 miles SW 5.8 mph - N/A Snow Light Snow
10:54 PM 30.2°F 30.2°F 100% 29.92 in 7.0 miles WSW 4.6 mph - N/A Snow Light Snow
10:58 PM 29.8°F 29.8°F 100% 29.99 in 9.0 miles WSW 4.6 mph - 0.00 in Snow Light Snow
11:00 PM 30.2°F 30.2°F 100% 29.92 in 10.0 miles SW 4.6 mph - N/A   Overcast
11:05 PM 30.2°F 30.2°F 100% 29.92 in 10.0 miles WSW 5.8 mph - N/A   Overcast
11:30 PM 30.2°F 30.2°F 100% 29.92 in 10.0 miles West 4.6 mph - N/A   Overcast
11:35 PM 30.2°F 30.2°F 100% 29.93 in 10.0 miles West 4.6 mph - N/A   Overcast
11:40 PM 30.2°F 30.2°F 100% 29.93 in 10.0 miles West 4.6 mph - N/A   Overcast
11:58 PM 29.8°F 29.8°F 100% 30.00 in 10.0 miles West 3.5 mph - 0.00 in   Overcast
Moon Phase
Dec. 12 Dec. 13 Dec. 20 Dec. 28 Jan. 04
Sunrise:07:30 AM (PST) Moon Rise:06:38 AM (PST)12/12
Sunset:03:59 PM (PST) Moon Set:03:42 PM (PST)12/12

Copyright © 2014 The Weather Underground, Inc.